100LL.CA
Aviation Fuel Pricing for Canadians
Please upgrade your browser - Tested with IE9, FireFox, Chrome, Safari

Fuel Airports Other Help
Prices Economy Info List METAR/TAF Kneeboard Help

Reference Airport: Armstrong, ON
N 50 17 38  W 088 54 36

CYYW Armstrong, ON
OTHER SITES
FlightAware FltPlan Google Maps SkyVector
WEATHER
METARCYYW 240000Z AUTO 31007G15KT 9SM CLR 12/M00 A3001 RMK SLP166
REF N 50 17 38  W 088 54 36    4.5ESE    4W
UTC-5(4)    Elev 1059    A5008 LO4 HI4 CAP
OPR Govt of Ontario 807-473-2082
Reg
PFC-1,2,4,5
FLT PLN NOTAM FILE CYPL
FIC Winnipeg 866-WXBRIEF (Toll free within Canada) or 866-541-4103 (Toll free within Canada & USA)
WXMETAR AUTO H24 WxCam
SERVICES
RWY DATARwy 12(123)/30(303) 4006x100 asphalt
APRONWest apron rstd to forest fire fighting acft, all other acft use east apron.
RCRCarroll's Service 807-583-1158, 613-982-5838 or 807-628-7379 Ltd win maint.
LIGHTING12-(TE ME) AP, 30-(TE ME) AP ARCAL-122.8 type K. Allow 10 sec for rwy lgt to activate.
COMM
ATFtfc 122.8 5NM 4100 ASL
AWOS128.65
NAV
NDBYYW 223 (M) N50 18 28 W89 01 20 Unmonitored
Effective 0901Z 0901Z 29 March 2018 to 0901Z 24 May 2018


Please Send Updates!

Desktop Version ]  [ Mobile Version ]  [ Disclaimer ]